Back to Previous

Regional Weather Roundup

874 
ASUS44 KLZK 270805
RWRLZK

WEATHER ROUNDUP FOR ARKANSAS
NATIONAL WEATHER SERVICE LITTLE ROCK AR
300 AM CDT SAT AUG 27 2016

NOTE: "FAIR" INDICATES FEW OR NO CLOUDS BELOW 12,000 FEET WITH NO
SIGNIFICANT WEATHER AND/OR OBSTRUCTIONS TO VISIBILITY.

ARZ001-003-010-029-270900-
NORTHWEST ARKANSAS
  
CITY           SKY/WX    TMP DP  RH WIND       PRES   REMARKS
FAYETTEVILLE   MOCLDY    69  69 100 CALM      30.06R                  
FORT SMITH     MOCLDY    75  71  87 E3        30.01S                  
HARRISON       CLEAR     71  70  96 CALM      30.07S                  
BENTONVILLE    CLOUDY    72  66  83 SE5       30.05S                  
ROGERS         PTCLDY    72  71  97 SE3       30.06S                  
SILOAM SPGS    MOCLDY    70  63  78 SE5       30.05S                  
HIGHFILL       MOCLDY    70  70 100 E3        30.05R                  
$$

ARZ004-005-016-270900-
NORTH CENTRAL ARKANSAS
  
CITY           SKY/WX    TMP DP  RH WIND       PRES   REMARKS
BATESVILLE     PTCLDY    72  70  94 CALM      30.04S                  
FLIPPIN        PTCLDY    70  66  88 SE3       30.03S                  
MTN HOME       PTCLDY    71  71 100 SE6       30.06S                  
$$

ARZ040-041-270900-
WEST CENTRAL ARKANSAS
  
CITY           SKY/WX    TMP DP  RH WIND       PRES   REMARKS
MENA           CLOUDY    72  72 100 CALM      30.05R                  
MOUNT IDA      PTCLDY    73  71  93 CALM      30.01R                  
$$

ARZ009-017-025-026-028-270900-
NORTHEAST ARKANSAS
  
CITY           SKY/WX    TMP DP  RH WIND       PRES   REMARKS
CORNING          N/A     72  72 100 CALM      30.05S                  
JONESBORO      MOCLDY    72  70  93 CALM      30.03S                  
NEWPORT        MOCLDY    71  71 100 NE6         N/A                   
WALNUT RIDGE   PTCLDY    72  70  94 CALM      30.03F                  
BLYTHEVILLE    CLEAR     72  71  97 NW5       30.03S                  
$$

ARZ022-023-033-042-044-270900-
CENTRAL ARKANSAS
  
CITY           SKY/WX    TMP DP  RH WIND       PRES   REMARKS
LITTLE ROCK    PTCLDY    77  72  84 SE3       30.01S                  
N LITTLE ROCK    N/A     74  72  93 CALM      29.99S                  
JACKSONVILLE   PTCLDY    74  74 100 CALM      30.01S                  
SEARCY         MOCLDY    74  74 100 NE3       30.04S                  
HOT SPRINGS    PTCLDY    75  72  90 E6        30.02R                  
RUSSELLVILLE   CLEAR     73  72  96 CALM      30.02R                  
$$

ARZ036-270900-
EAST ARKANSAS
  
CITY           SKY/WX    TMP DP  RH WIND       PRES   REMARKS
WEST MEMPHIS   CLEAR     73  71  93 SE6       30.01F                  
$$

ARZ050-053-066-070-073-270900-
SOUTHWEST ARKANSAS
  
CITY           SKY/WX    TMP DP  RH WIND       PRES   REMARKS
ARKADELPHIA    FAIR      76  75  97 CALM      30.01R                  
TEXARKANA      PTCLDY    75  72  90 SE5       29.99S                  
EL DORADO      CLEAR     72  71  97 CALM      30.00S                  
DE QUEEN       CLOUDY    74  74 100 CALM      29.98R FOG              
$$

ARZ056-057-069-270900-
SOUTHEAST ARKANSAS
  
CITY           SKY/WX    TMP DP  RH WIND       PRES   REMARKS
PINE BLUFF     PTCLDY    73  72  96 CALM      30.01S                  
STUTTGART      MOCLDY    75  72  88 E5        30.02R                  
MONTICELLO     MOCLDY    77  73  87 E5        30.00S                  

$$


  


USA.gov is the U.S. government's official web portal to all federal, state and local government web resources and services.